Location: Unspecified
(49.9820°N, 20.4363°E)
Time: 20:23:09
(UTC+02:00)

ISS - Pass Details

Date: 18 May 2025
Orbit: 415 x 417 km, 51.6° (Epoch: 12 June)

Event Time Altitude Azimuth Distance (km) Brightness Sun altitude
Rises 23:05:20 0° 288° (WNW) 2,360 0.6 -17.5°
Reaches altitude 10° 23:07:27 10° 283° (WNW) 1,494 -0.5 -17.6°
Maximum altitude 23:10:44 52° 206° (SSW) 526 -3.6 -17.8°
Enters shadow 23:10:46 52° 203° (SSW) 527 -3.6 -17.8°
